DW4554 Weather Reports


time (UTC)temp
F
wind
direction
speed
knots
gust
knots
rain 1hr
in
rain 24hr
in
rain mn
in
humidity
%
barometer
mb
20260906171904 67 281 0.0 0.9 0.00 0.00 0.00 48 1024.2
20260906171404 68 281 0.0 2.6 0.00 0.00 0.00 48 1024.1
20260906170905 68 281 0.0 1.7 0.00 0.00 0.00 47 1024.2
20260906170404 68 281 0.9 1.7 0.00 0.00 0.00 47 1024.1
20260906165904 69 281 0.0 1.7 0.00 0.00 0.00 46 1024.1
20260906165404 69 281 0.9 1.7 0.00 0.00 0.00 46 1024.1
20260906164904 69 281 1.7 2.6 0.00 0.00 0.00 45 1024.1
20260906163904 70 284 1.7 5.2 0.00 0.00 0.00 44 1024.0
20260906162904 70 299 0.9 7.0 0.00 0.00 0.00 43 1024.0
20260906162404 71 296 2.6 5.2 0.00 0.00 0.00 43 1024.0
20260906161904 71 295 1.7 6.1 0.00 0.00 0.00 43 1023.9
20260906160904 72 289 2.6 7.0 0.00 0.00 0.00 42 1024.0
20260906160404 72 283 1.7 4.3 0.00 0.00 0.00 42 1024.0
20260906155905 73 291 3.5 5.2 0.00 0.00 0.00 41 1024.0
20260906155404 73 289 1.7 5.2 0.00 0.00 0.00 40 1023.9
20260906154904 73 273 2.6 7.0 0.00 0.00 0.00 40 1023.9
20260906154404 73 255 1.7 6.1 0.00 0.00 0.00 40 1024.0
20260906153404 74 274 2.6 6.1 0.00 0.00 0.00 39 1023.9
20260906152904 74 303 2.6 7.0 0.00 0.00 0.00 40 1023.9
20260906152405 74 230 1.7 7.0 0.00 0.00 0.00 39 1023.9
20260906151904 75 244 2.6 7.8 0.00 0.00 0.00 38 1023.9
20260906151406 75 277 2.6 7.8 0.00 0.00 0.00 38 1024.0
20260906150404 75 301 1.7 6.1 0.00 0.00 0.00 38 1024.0
20260906145904 75 240 5.2 7.8 0.00 0.00 0.00 39 1024.0
20260906145404 75 246 3.5 7.8 0.00 0.00 0.00 38 1024.1
20260906144904 75 243 2.6 7.8 0.00 0.00 0.00 38 1023.9
20260906144405 75 240 5.2 8.7 0.00 0.00 0.00 38 1023.9
20260906143904 75 263 2.6 7.0 0.00 0.00 0.00 39 1023.9
20260906143404 76 288 3.5 7.8 0.00 0.00 0.00 39 1024.0
20260906142904 76 271 3.5 7.0 0.00 0.00 0.00 37 1023.9
20260906142404 76 235 2.6 6.1 0.00 0.00 0.00 38 1023.9
20260906141404 76 277 3.5 10.4 0.00 0.00 0.00 38 1023.9
20260906140405 75 281 2.6 7.8 0.00 0.00 0.00 37 1023.9
20260906135904 75 246 4.3 7.8 0.00 0.00 0.00 39 1023.9
20260906135404 75 284 2.6 10.4 0.00 0.00 0.00 38 1023.9
20260906134904 75 290 3.5 7.8 0.00 0.00 0.00 39 1023.9
20260906134404 74 302 4.3 10.4 0.00 0.00 0.00 39 1023.9
20260906133904 74 284 5.2 8.7 0.00 0.00 0.00 39 1024.0
20260906133404 74 300 4.3 7.0 0.00 0.00 0.00 40 1024.0
20260906132404 73 253 2.6 7.8 0.00 0.00 0.00 41 1024.0
20260906130904 73 308 5.2 8.7 0.00 0.00 0.00 42 1023.9
20260906130404 72 329 2.6 6.1 0.00 0.00 0.00 43 1023.9
20260906125904 72 306 1.7 7.0 0.00 0.00 0.00 44 1023.9
20260906125404 72 308 4.3 10.4 0.00 0.00 0.00 44 1023.9
20260906124904 71 285 5.2 11.3 0.00 0.00 0.00 44 1023.9
20260906124405 71 249 4.3 11.3 0.00 0.00 0.00 46 1023.9
20260906123904 71 250 5.2 13.0 0.00 0.00 0.00 46 1023.9
20260906123404 71 306 2.6 10.4 0.00 0.00 0.00 44 1023.9
20260906122904 71 295 2.6 8.7 0.00 0.00 0.00 45 1024.1
20260906122405 71 294 4.3 12.2 0.00 0.00 0.00 43 1024.1
20260906121905 71 296 6.1 13.0 0.00 0.00 0.00 44 1024.0
20260906120904 71 290 2.6 11.3 0.00 0.00 0.00 45 1023.9
20260906120404 71 306 4.3 13.0 0.00 0.00 0.00 45 1024.0
20260906115904 70 231 4.3 11.3 0.00 0.00 0.00 45 1024.0
20260906115404 70 267 4.3 11.3 0.00 0.00 0.00 45 1024.0
20260906114904 70 241 2.6 10.4 0.00 0.00 0.00 46 1024.1
20260906114405 70 262 3.5 11.3 0.00 0.00 0.00 46 1024.1
20260906113904 69 293 6.1 13.0 0.00 0.00 0.00 46 1024.1
20260906113404 69 247 6.1 11.3 0.00 0.00 0.00 47 1024.0
20260906112904 69 269 3.5 7.8 0.00 0.00 0.00 47 1024.2
20260906112404 69 243 5.2 11.3 0.00 0.00 0.00 48 1024.3
20260906111904 69 276 4.3 10.4 0.00 0.00 0.00 48 1024.3
20260906111405 68 264 4.3 10.4 0.00 0.00 0.00 48 1024.3
20260906110905 68 266 4.3 8.7 0.00 0.00 0.00 49 1024.3
20260906110405 68 297 3.5 11.3 0.00 0.00 0.00 49 1024.4
20260906105404 69 306 2.6 7.8 0.00 0.00 0.00 49 1024.5
20260906104905 69 305 5.2 11.3 0.00 0.00 0.00 49 1024.5
20260906104405 69 285 4.3 8.7 0.00 0.00 0.00 50 1024.3
20260906103905 68 249 4.3 10.4 0.00 0.00 0.00 50 1024.2
20260906103404 68 243 2.6 10.4 0.00 0.00 0.00 50 1024.2
20260906102904 68 248 7.0 13.0 0.00 0.00 0.00 49 1024.2
20260906102405 68 263 4.3 8.7 0.00 0.00 0.00 49 1024.3
20260906101904 68 295 5.2 7.8 0.00 0.00 0.00 49 1024.3
20260906101404 68 248 4.3 10.4 0.00 0.00 0.00 52 1024.3
20260906100905 68 257 5.2 14.8 0.00 0.00 0.00 51 1024.3
20260906100404 68 277 4.3 13.9 0.00 0.00 0.00 52 1024.2
20260906095406 67 270 4.3 10.4 0.00 0.00 0.00 52 1024.3
20260906094905 67 242 2.6 10.4 0.00 0.00 0.00 52 1024.3
20260906093904 67 268 5.2 10.4 0.00 0.00 0.00 54 1024.4
20260906092904 67 271 3.5 10.4 0.00 0.00 0.00 56 1024.3
20260906092405 67 230 4.3 10.4 0.00 0.00 0.00 56 1024.2
20260906091904 66 257 4.3 10.4 0.00 0.00 0.00 55 1024.2
20260906091404 66 290 5.2 13.0 0.00 0.00 0.00 56 1024.2
20260906090904 65 300 6.1 13.9 0.00 0.00 0.00 57 1024.2
20260906090404 65 301 6.1 13.0 0.00 0.00 0.00 60 1024.2
20260906085904 65 261 4.3 8.7 0.00 0.00 0.00 60 1024.4
20260906085405 65 276 6.1 10.4 0.00 0.00 0.00 59 1024.4
20260906084404 66 257 4.3 10.4 0.00 0.00 0.00 59 1024.2
20260906083904 66 244 4.3 10.4 0.00 0.00 0.00 60 1024.2
20260906083404 66 271 2.6 10.4 0.00 0.00 0.00 59 1024.1
20260906082904 66 286 2.6 8.7 0.00 0.00 0.00 60 1024.0
20260906082404 65 281 4.3 8.7 0.00 0.00 0.00 60 1024.0
20260906081904 65 271 5.2 8.7 0.00 0.00 0.00 60 1023.9
20260906081404 64 294 6.1 12.2 0.00 0.00 0.00 62 1023.9
20260906080904 64 276 4.3 8.7 0.00 0.00 0.00 63 1024.0
20260906080404 64 292 2.6 7.0 0.00 0.00 0.00 64 1023.9
20260906075904 64 244 3.5 7.8 0.00 0.00 0.00 64 1023.9
20260906075405 64 251 2.6 11.3 0.00 0.00 0.00 65 1023.8
20260906074904 64 277 4.3 8.7 0.00 0.00 0.00 65 1023.7
20260906074405 64 295 4.3 10.4 0.00 0.00 0.00 66 1023.7
20260906073904 63 289 4.3 8.7 0.00 0.00 0.00 67 1023.8
20260906073404 63 298 4.3 10.4 0.00 0.00 0.00 68 1023.8
20260906072404 62 292 4.3 11.3 0.00 0.00 0.00 72 1023.7
20260906071905 61 284 3.5 8.7 0.00 0.01 0.00 74 1023.6
20260906071404 61 246 4.3 8.7 0.00 0.01 0.00 75 1023.5
20260906070905 60 223 5.2 10.4 0.00 0.01 0.00 77 1023.5
20260906070404 60 251 2.6 7.8 0.00 0.01 0.00 78 1023.6
20260906065904 59 232 5.2 7.8 0.00 0.01 0.00 80 1023.6
20260906065405 58 287 1.7 6.1 0.00 0.01 0.00 81 1023.6
20260906064905 58 275 1.7 4.3 0.00 0.02 0.00 81 1023.5
20260906064404 57 240 1.7 7.0 0.00 0.02 0.00 82 1023.6
20260906063904 57 261 2.6 6.1 0.00 0.02 0.00 84 1023.5
20260906063404 56 236 2.6 7.0 0.00 0.02 0.00 84 1023.3
20260906061904 55 219 1.7 2.6 0.00 0.02 0.00 86 1023.2
20260906061404 55 220 1.7 4.3 0.00 0.02 0.00 86 1023.2
20260906060404 54 232 0.9 2.6 0.00 0.02 0.00 87 1023.1
20260906055904 54 232 1.7 2.6 0.00 0.02 0.00 88 1023.1
20260906055405 53 232 1.7 4.3 0.00 0.02 0.00 88 1023.1
20260906054904 53 212 0.9 2.6 0.00 0.03 0.00 88 1023.1
20260906054404 53 213 1.7 4.3 0.00 0.03 0.00 88 1023.0
20260906053905 53 231 1.7 2.6 0.00 0.03 0.00 88 1022.9
20260906053404 52 232 0.9 4.3 0.00 0.03 0.00 88 1022.9
20260906052904 52 231 0.9 2.6 0.00 0.03 0.00 88 1022.8
20260906052404 52 231 0.0 0.0 0.00 0.03 0.00 87 1022.8
20260906051904 52 231 0.0 0.0 0.00 0.04 0.00 86 1022.7
20260906050904 52 231 0.0 0.0 0.00 0.04 0.00 85 1022.7
20260906050405 52 231 0.0 0.0 0.00 0.04 0.00 85 1022.5
20260906045404 52 231 0.0 0.0 0.00 0.04 0.00 85 1022.4
20260906043404 52 231 0.0 0.0 0.00 0.04 0.00 84 1022.3
20260906042904 52 231 0.0 0.0 0.00 0.04 0.00 84 1022.3
20260906042404 52 231 0.0 1.7 0.00 0.04 0.00 83 1022.3
20260906041904 53 231 0.9 2.6 0.00 0.04 0.00 83 1022.2
20260906041405 53 231 0.9 2.6 0.00 0.04 0.00 82 1022.1
20260906040904 53 232 0.0 1.7 0.00 0.04 0.00 82 1022.1
20260906035904 53 232 0.9 1.7 0.00 0.04 0.00 81 1022.0
20260906035405 53 236 0.0 2.6 0.00 0.04 0.00 81 1021.9
20260906034904 53 236 0.0 0.0 0.00 0.04 0.00 81 1021.8
20260906034404 54 236 0.0 1.7 0.00 0.04 0.00 81 1021.8
20260906033904 54 236 0.9 1.7 0.00 0.04 0.00 81 1021.8
20260906032905 54 236 0.0 0.0 0.00 0.04 0.00 80 1021.7
20260906032404 54 236 0.9 1.7 0.00 0.04 0.00 80 1021.7
20260906030904 55 236 0.0 0.9 0.00 0.04 0.00 79 1021.6
20260906030404 55 236 0.0 0.9 0.00 0.04 0.00 78 1021.4
20260906025404 55 236 0.0 1.7 0.00 0.04 0.00 78 1021.3
20260906024904 56 236 0.0 1.7 0.00 0.04 0.00 77 1021.4
20260906024404 56 236 0.9 1.7 0.00 0.04 0.00 77 1021.4
20260906023904 56 236 0.0 0.0 0.00 0.04 0.00 77 1021.3
20260906023404 56 236 0.0 0.0 0.00 0.04 0.00 76 1021.3
20260906022905 56 236 0.0 0.0 0.00 0.04 0.00 76 1021.3
20260906022404 56 236 0.0 1.7 0.00 0.04 0.00 76 1021.3
20260906021904 56 236 0.9 1.7 0.00 0.04 0.00 76 1021.2
20260906021405 57 236 0.0 0.0 0.00 0.04 0.00 75 1021.3
20260906020904 57 236 0.0 0.0 0.00 0.04 0.00 75 1021.2
20260906020404 57 236 0.0 0.0 0.00 0.04 0.00 75 1021.2
20260906015904 57 236 0.0 0.0 0.00 0.04 0.00 75 1021.1
20260906015404 57 236 0.0 1.7 0.00 0.04 0.00 75 1021.1
20260906014904 57 236 0.0 0.9 0.00 0.04 0.00 74 1021.0
20260906014404 57 236 0.9 2.6 0.00 0.04 0.00 74 1021.0
20260906013904 57 236 1.7 4.3 0.00 0.04 0.00 74 1020.9
20260906013404 57 236 1.7 4.3 0.00 0.04 0.00 73 1020.9
20260906012904 57 228 0.9 2.6 0.00 0.04 0.00 73 1020.8
20260906011904 57 227 0.9 2.6 0.00 0.04 0.00 73 1020.7
20260906011404 57 227 1.7 4.3 0.00 0.04 0.00 73 1020.6
20260906010904 57 215 0.0 1.7 0.00 0.04 0.00 73 1020.7
20260906010405 57 215 1.7 2.6 0.00 0.04 0.00 73 1020.7
20260906005904 57 215 1.7 4.3 0.00 0.04 0.00 73 1020.6
20260906004904 57 236 0.9 2.6 0.00 0.04 0.00 72 1020.5
20260906004404 57 236 1.7 2.6 0.00 0.04 0.00 72 1020.4
20260906003905 58 236 0.0 2.6 0.00 0.04 0.00 72 1020.3
20260906003404 58 236 0.9 2.6 0.00 0.04 0.00 72 1020.2
20260906002904 58 236 0.9 2.6 0.00 0.04 0.00 72 1020.3
20260906002405 58 236 0.9 2.6 0.00 0.04 0.00 72 1020.3
20260906001904 58 236 1.7 2.6 0.00 0.04 0.00 72 1020.3
20260906001405 58 236 1.7 4.3 0.00 0.04 0.00 72 1020.3
20260906000905 58 236 0.9 2.6 0.00 0.04 0.00 72 1020.3
20260906000405 58 235 2.6 4.3 0.00 0.04 0.00 72 1020.2
20260905235905 58 216 1.7 2.6 0.00 0.04 0.00 72 1020.2
20260905235405 58 219 2.6 5.2 0.00 0.04 0.00 72 1020.1
20260905234904 58 244 4.3 6.1 0.00 0.04 0.00 72 1020.2
20260905234404 58 238 2.6 4.3 0.00 0.04 0.00 72 1020.1
20260905233904 58 234 1.7 2.6 0.00 0.04 0.00 72 1020.1
20260905232905 59 234 0.9 2.6 0.00 0.04 0.00 71 1020.0
20260905232404 59 234 1.7 2.6 0.00 0.04 0.00 71 1019.9
20260905231904 59 234 1.7 2.6 0.00 0.04 0.00 71 1019.9
20260905230904 59 234 0.0 1.7 0.00 0.04 0.00 70 1019.9
20260905230404 60 234 0.0 0.0 0.00 0.04 0.00 69 1019.9
20260905225404 60 234 0.0 0.0 0.00 0.04 0.00 68 1019.9
20260905224905 60 234 0.0 0.0 0.00 0.04 0.00 68 1019.9
20260905223905 61 234 0.0 0.9 0.00 0.04 0.00 67 1019.8
20260905223405 61 234 0.0 0.9 0.00 0.04 0.00 67 1019.7
20260905222905 61 234 0.0 0.0 0.00 0.04 0.00 67 1019.7
20260905222404 61 234 0.0 0.9 0.00 0.04 0.00 66 1019.7
20260905221404 62 234 0.0 1.7 0.00 0.04 0.00 65 1019.6
20260905220404 62 234 0.0 0.9 0.00 0.04 0.00 65 1019.6
20260905215905 63 234 0.0 1.7 0.00 0.04 0.04 65 1019.6
20260905215404 63 234 0.9 1.7 0.00 0.04 0.04 65 1019.5
20260905214905 63 234 0.0 1.7 0.00 0.04 0.04 65 1019.4
20260905213904 63 234 0.9 2.6 0.00 0.04 0.04 65 1019.3
20260905213404 63 234 0.9 2.6 0.00 0.04 0.04 65 1019.3
20260905212904 63 234 1.7 2.6 0.00 0.04 0.04 65 1019.2
20260905212405 63 231 2.6 4.3 0.00 0.04 0.04 65 1019.1
20260905211904 63 251 2.6 6.1 0.00 0.04 0.04 65 1019.0
20260905211404 63 241 1.7 4.3 0.00 0.04 0.04 65 1019.0
20260905210904 63 237 2.6 4.3 0.00 0.04 0.04 66 1019.0
20260905210404 63 232 1.7 4.3 0.00 0.04 0.04 67 1019.0
20260905205904 63 222 1.7 2.6 0.00 0.04 0.04 67 1018.9
20260905204904 63 222 1.7 5.2 0.00 0.04 0.04 67 1018.8
20260905204404 63 243 1.7 5.2 0.00 0.04 0.04 67 1018.8
20260905203904 63 233 0.9 2.6 0.00 0.04 0.04 67 1018.7
20260905203404 63 233 0.0 0.9 0.00 0.04 0.04 68 1018.8
20260905202906 64 233 0.9 1.7 0.00 0.04 0.04 68 1018.8
20260905202404 64 233 0.0 2.6 0.00 0.04 0.04 68 1018.7
20260905200904 64 233 0.0 0.0 0.00 0.04 0.04 66 1018.6
20260905200405 64 233 0.0 0.0 0.00 0.04 0.04 66 1018.6
20260905195404 64 233 0.0 0.0 0.00 0.04 0.04 65 1018.6
20260905194904 65 233 0.0 0.0 0.00 0.04 0.04 64 1018.5
20260905194404 65 233 0.0 0.0 0.00 0.04 0.04 64 1018.5
20260905193904 65 233 0.0 0.9 0.00 0.04 0.04 63 1018.3
20260905192904 65 233 0.0 0.0 0.00 0.04 0.04 62 1018.3
20260905192405 66 233 0.0 1.7 0.00 0.04 0.04 62 1018.3
20260905191904 66 233 0.0 1.7 0.00 0.04 0.04 62 1018.3
20260905191404 66 233 0.0 0.9 0.00 0.04 0.04 61 1018.3
20260905190905 66 233 0.0 1.7 0.00 0.04 0.04 61 1018.3
20260905190404 66 233 0.0 1.7 0.00 0.04 0.04 60 1018.2
20260905185904 67 233 0.0 0.9 0.00 0.04 0.04 60 1018.1
20260905185404 67 233 0.0 0.9 0.00 0.04 0.04 59 1017.9
20260905184404 67 233 0.9 1.7 0.00 0.04 0.04 59 1017.8
20260905183906 68 233 0.9 1.7 0.00 0.04 0.04 58 1017.7
20260905183404 68 233 0.0 1.7 0.00 0.04 0.04 57 1017.6
20260905182904 68 233 0.0 1.7 0.00 0.04 0.04 56 1017.5
20260905182404 68 233 0.9 2.6 0.00 0.04 0.04 56 1017.4
20260905181904 69 233 0.9 2.6 0.00 0.04 0.04 55 1017.4
20260905181404 69 233 0.9 1.7 0.00 0.04 0.04 54 1017.3
20260905180405 69 233 0.9 1.7 0.00 0.04 0.04 53 1017.2
20260905175904 70 233 0.9 2.6 0.00 0.04 0.04 53 1017.1
20260905175404 70 250 0.9 2.6 0.00 0.04 0.04 52 1017.1
20260905174904 70 266 0.0 1.7 0.00 0.04 0.04 52 1017.0
20260905173905 70 262 0.9 2.6 0.00 0.04 0.04 51 1016.8
20260905172904 71 246 0.0 2.6 0.00 0.04 0.04 50 1016.7